Home > Weather > Torrevieja > Past weeks

Flag for Spain Past Weather in Torrevieja, Spain — Yesterday and Last 2 Weeks

Now
68 °F

Mild.


Feels Like: 68 °F
Forecast: 66 / 78 °F
Wind: 5 mph from Northwest

Location: Murcia / San Javier

Current Time: Jun 25, 2016 at 3:52:53 AM

Latest Report: Jun 25, 2016 at 3:00 AM


Visibility: N/A

Pressure: 29.96 "Hg

Humidity: 88%

Dew Point: 64 °F

Location of TorreviejaLocation

Past Weather in Torrevieja — Graph

°F

Torrevieja Temperature Yesterday

Maximum temperature yesterday: 81 °F (at 12:00 PM)
Minimum temperature yesterday: 64 °F (at 7:00 AM)
Average temperature yesterday: 74 °F

High & Low Weather Summary for the Past Weeks

 TemperatureHumidityPressure
High99 °F (Jun 13, 1:00 PM)92% (Jun 24, 6:00 AM)30.30 "Hg (Jun 24, 6:00 AM)
Low62 °F (Jun 18, 6:00 AM)18% (Jun 15, 9:00 PM)29.50 "Hg (Jun 15, 6:00 PM)
Average76 °F64%29.99 "Hg
* Reported Jun 10 2:00 AM — Jun 25 2:00 AM, Torrevieja, Weather by CustomWeather, © 2016

Note: Actual official high and low records may vary slightly from our data, if they occured in-between our weather recording intervals... More about our weather records

Advertising

Torrevieja Weather History for the Previous 24 Hours

Scroll right to see more
 ConditionsComfort  
Time TempWeatherWind HumidityBarometerVisibility
2:00 AM
Sat, Jun 25
69 °FMild.No wind86%29.98 "HgN/A
1:00 AM72 °FMild.No wind89%30.00 "HgN/A
12:00 AM73 °FMild.1 mph86%30.01 "HgN/A
10:00 PM
Fri, Jun 24
75 °FMild.7 mph85%29.99 "HgN/A
9:00 PM76 °FMild.6 mph78%30.00 "HgN/A
8:00 PM78 °FPassing clouds.7 mph70%30.00 "Hg12 mi
7:00 PM79 °FWarm.12 mph71%30.00 "HgN/A
6:00 PM79 °FWarm.12 mph74%30.01 "HgN/A
4:00 PM80 °FWarm.13 mph70%30.04 "HgN/A
3:00 PM79 °FWarm.15 mph64%30.06 "HgN/A
1:00 PM80 °FWarm.12 mph62%30.09 "HgN/A
12:00 PM81 °FWarm.7 mph64%30.09 "HgN/A
10:00 AM77 °FWarm.3 mph72%30.11 "HgN/A
9:00 AM73 °FMild.2 mph78%30.11 "HgN/A
8:00 AM67 °FFog.2 mph87%30.11 "Hg3 mi
7:00 AM64 °FMild.5 mph92%30.10 "HgN/A
6:00 AM64 °FMild.3 mph92%30.10 "HgN/A
4:00 AM65 °FMild.3 mph90%30.11 "HgN/A
3:00 AM68 °FMild.3 mph90%30.13 "HgN/A
Weather by CustomWeather, © 2016

See weather overviewHow to use our weather pages